Terminal Aerodrome Forecast
Issued by NWS Rapid City, SD

Home | Current Version | Previous Version | Text Only | Print | Product List | Glossary On
Versions: 1 2 3 4 5 6 7 8 9 10 11 12 13
000
FTUS43 KUNR 271700
TAFRAP
TAF
KRAP 271740Z 2718/2818 36012G22KT P6SM SKC
     FM280100 03005KT P6SM SKC=

USA.gov is the U.S. government's official web portal to all federal, state and local government web resources and services.